{"data":{"norad_id":52269,"epoch":"2026-05-25T04:49:09.748992Z","epoch_age_seconds":53550,"freshness":"FRESH","line1":"1 52269U 22041J   26145.20080728  .00000789  00000+0  67670-4 0  9991","line2":"2 52269  53.2133 125.6503 0001121  86.5153 273.5968 15.08839907225917","mean_motion":15.08839907,"eccentricity":0.0001121,"inclination_deg":53.2133,"raan_deg":125.6503,"arg_perigee_deg":86.5153,"mean_anomaly_deg":273.5968,"bstar":6.767e-5,"rev_number":22591,"period_min":95.437560560227,"perigee_km":538.96817880445,"apogee_km":540.51916765138,"semimajor_km":6917.8806732279,"source":"CELESTRAK","updated_at":"2026-05-25T13:38:17.081467Z"}}